User: anonymous
Location: Vallejo Observatory
(38.1221°N, 122.2109°W)
Time: 18:50:52
(UTC-07:00)
Language:

MOS 1 Rocket - Orbit

View from above orbital plane
View from above orbital plane
View from above satellite
View from above satellite

Ground track
Ground track

The orbit data is extracted from the following two-line orbital elements,

1 17528U 87018B   14244.75139775  .00000215  00000-0  57894-4 0  4547
2 17528 097.4579 305.4044 0152687 252.7959 256.4926 14.50028255452090
Epoch (UTC): 01 September 2014 18:02:00
Eccentricity: 0.0152687
inclination: 97.4579°
perigee height: 617 km
apogee height: 834 km
right ascension of ascending node: 305.4044°
argument of perigee: 252.7959°
revolutions per day: 14.50028255
mean anomaly at epoch: 256.4926°
orbit number at epoch: 45209

The dashed part of the orbit path shows where the satellite is in the earth's shadow,  

DLR